RH
43 39 35 35 51 66 55 45 41 32 24 22 21 27 36 57 47 50 64 50 41 54 72 66 60 64 74 70 77 81 84 91 93 47 44 33 30 50 69 61 66 57 24 15 17 50 77 74 69
44 42 38 42 64 67 56 46 37 32 24 50 42 53 61 76 70 63 68 61 42 51 58 69 60 64 74 69 82 89 93 90 71 44 36 35 39 59 78 76 74 57 20 14 19 27 67 69 66
46 47 40 60 76 68 48 39 41 36 26 32 46 57 66 76 68 60 69 61 64 46 49 63 66 86 79 70 78 68 65 72 55 39 47 44 54 70 92 83 77 54 20 15 24 32 43 52 49
48 48 51 70 69 56 45 46 43 41 24 23 40 70 75 74 67 62 65 68 70 52 55 67 86 82 70 73 69 61 47 34 30 34 50 52 57 73 88 82 79 47 23 22 21 26 33 34 34
59 48 68 76 68 58 48 46 46 42 30 25 55 78 79 76 68 65 63 68 70 60 69 78 79 71 71 76 70 61 34 17 25 66 85 62 58 77 77 78 67 49 28 29 32 28 27 29 34
68 53 80 83 67 57 53 49 48 40 30 53 69 79 77 74 73 70 71 72 74 64 82 86 81 68 79 76 69 59 28 18 20 40 98 95 86 95 67 61 51 51 31 28 35 35 34 36 46
83 79 75 76 64 62 50 48 50 49 35 26 65 86 84 79 79 78 78 78 76 70 77 91 84 78 75 77 72 59 36 19 20 21 28 59 95 89 60 55 56 55 37 27 36 38 40 41 49
76 75 81 74 71 62 61 53 53 55 45 38 70 82 89 79 83 84 85 82 76 74 77 92 94 90 84 82 81 61 45 26 19 16 17 41 44 46 45 55 52 47 38 27 34 40 42 43 45
81 90 75 78 64 60 66 60 55 44 49 44 60 77 71 79 87 89 92 89 83 76 76 82 86 87 83 86 73 68 59 48 36 29 19 21 27 32 38 42 47 49 42 31 28 38 40 38 38
88 88 72 52 58 66 74 69 64 52 48 51 48 97 84 79 88 92 92 89 85 86 86 80 73 90 83 74 68 56 58 59 55 49 40 22 20 20 22 29 38 40 42 35 29 34 40 40 39
94 78 63 51 58 63 75 73 66 58 51 52 56 64 100 89 88 79 92 86 82 86 86 82 78 85 86 77 75 68 61 59 55 52 44 40 23 20 20 20 23 29 34 35 34 28 36 41 40
94 72 63 62 71 63 67 66 66 68 54 53 42 40 92 81 78 74 76 78 83 83 78 74 75 82 87 86 83 75 62 58 57 52 44 38 40 26 22 22 22 25 28 28 27 27 31 37 40
80 74 70 66 69 75 64 76 71 58 53 50 45 43 61 59 61 69 70 71 81 79 78 73 73 71 78 78 72 69 66 67 62 55 47 44 40 44 28 32 39 45 52 51 45 39 35 36 42
67 62 64 85 76 81 72 78 62 44 47 47 45 51 72 62 55 56 65 79 82 80 78 74 72 74 77 75 74 71 74 75 69 58 63 62 55 56 56 53 53 56 62 66 66 64 63 60 51
65 83 90 90 86 85 70 77 80 50 51 51 48 47 76 68 70 64 58 65 78 76 76 74 73 76 77 75 76 77 77 79 76 65 66 69 72 74 75 76 75 72 71 73 74 74 72 70 72
76 82 94 87 92 87 75 83 73 57 56 54 51 52 38 59 66 68 64 62 66 73 69 76 80 83 85 84 83 83 83 82 78 77 72 70 72 78 79 80 81 83 84 83 79 79 80 79 80
81 92 84 91 76 86 72 78 56 64 67 62 54 49 49 33 31 38 62 66 64 63 69 75 82 83 87 89 89 88 89 89 88 86 85 79 77 78 80 80 80 88 90 91 93 93 90 87 85
90 92 79 89 71 79 74 62 68 64 63 64 50 52 51 42 32 30 28 32 42 38 52 69 76 77 81 82 84 90 92 92 90 86 84 87 84 83 85 87 89 92 94 95 96 95 93 92 90
74 76 78 58 59 73 80 66 55 66 68 68 55 54 48 43 36 32 28 27 26 26 28 37 50 61 73 79 77 78 82 88 83 82 84 86 85 88 91 92 93 94 94 92 91 91 87 86 89
68 78 75 55 56 62 62 65 50 52 64 62 50 44 37 40 31 33 28 28 27 26 25 26 31 38 46 56 60 75 80 83 74 70 77 84 81 94 92 95 95 94 93 87 86 89 92 84 77
67 78 76 68 58 48 60 63 60 53 47 44 42 42 35 31 33 33 27 26 26 28 29 29 28 29 32 36 38 44 49 50 57 67 75 77 84 92 91 90 84 86 89 91 93 90 88 79 77
72 60 56 62 68 86 51 86 64 53 51 49 45 41 37 33 34 33 29 28 28 30 31 31 31 31 31 32 33 34 35 37 39 42 44 45 44 44 45 47 50 49 52 62 78 86 79 86 76
63 56 56 55 67 61 59 73 62 45 51 44 39 40 34 33 32 31 30 30 31 32 32 32 32 31 31 31 31 32 34 34 36 37 36 36 36 36 39 41 42 43 48 55 66 77 89 84 84
62 64 70 74 74 92 68 70 71 57 43 36 35 35 30 30 34 32 34 36 36 36 37 37 36 35 35 36 36 36 38 39 40 39 40 40 41 41 40 39 37 35 34 36 49 67 84 86 90
61 71 96 94 95 93 67 74 55 43 40 37 34 28 29 34 36 34 36 40 43 43 43 43 42 42 42 42 42 42 42 43 44 44 46 48 50 50 51 50 51 51 49 49 51 61 70 86 92
67 63 89 86 96 83 70 86 59 44 39 38 34 32 33 32 34 35 41 46 50 50 51 52 52 52 51 50 50 49 50 52 53 55 56 58 58 58 58 59 58 58 56 55 56 73 89 94 95
81 86 58 78 75 88 75 63 43 41 43 40 38 40 38 38 42 48 55 53 54 56 57 58 58 57 56 55 54 54 54 55 56 58 60 60 61 61 60 60 59 58 57 55 53 57 68 97 99
80 72 84 90 82 82 70 68 57 41 40 39 47 54 49 48 57 58 56 56 59 60 61 62 60 60 61 60 60 59 58 58 58 57 57 57 56 55 54 54 54 54 55 58 60 60 70 82 88
94 92 81 77 79 78 80 66 50 40 34 40 46 50 53 55 57 57 59 62 64 64 64 63 62 65 67 68 67 66 65 64 63 60 59 59 59 58 60 63 65 65 64 62 62 65 67 68 72
74 85 81 94 88 90 87 74 37 39 43 40 48 50 52 54 56 59 63 64 66 66 66 66 66 70 71 72 72 72 72 69 66 64 62 64 67 71 75 76 73 73 73 74 75 75 76 78 82
Wind_Speed
3 3 1 1 3 4 2 5 2 3 1 3 3 4 5 4 4 4 13 20 25 26 25 22 19 16 14 12 11 11 10 9 8 7 6 7 11 13 11 11 10 10 9 6 5 6 7 6 5
3 3 3 4 4 3 4 4 3 3 4 8 6 8 4 2 3 9 25 17 23 24 25 22 19 16 14 13 12 12 12 10 4 5 8 10 13 13 11 9 8 10 10 9 7 7 8 6 4
2 2 3 4 4 5 4 2 4 9 10 6 1 5 3 2 5 22 13 25 24 22 23 21 19 17 15 14 13 10 8 6 4 6 9 11 13 13 11 7 6 9 10 9 9 9 8 6 5
7 2 4 4 5 5 3 3 5 13 4 5 3 5 5 9 15 13 15 20 22 22 22 21 20 18 15 14 10 6 3 1 5 10 11 12 12 12 9 7 6 7 8 9 9 9 8 7 7
20 4 3 3 4 3 1 6 9 5 7 1 4 3 4 12 9 10 14 18 20 21 21 21 19 17 15 13 8 5 3 4 6 11 11 12 13 11 8 6 6 6 7 8 8 8 8 7 6
3 5 3 5 4 3 4 5 6 7 5 1 4 6 4 10 8 14 15 15 16 22 22 19 17 16 14 11 8 6 5 5 7 7 11 11 12 11 9 8 7 6 6 7 6 6 6 5 4
12 3 7 6 4 3 2 4 4 6 7 3 7 3 4 11 15 18 15 14 18 21 21 17 16 15 13 11 9 7 6 6 8 8 5 8 10 10 10 9 7 5 5 6 6 5 4 4 4
17 4 6 5 5 4 1 2 5 9 3 5 1 4 6 19 23 20 17 16 18 20 18 18 17 15 14 11 10 8 7 5 7 7 6 7 5 3 2 4 3 1 0 1 2 3 4 3 5
20 2 9 9 7 3 4 3 5 3 12 4 4 3 5 25 24 21 20 19 20 20 18 16 16 16 14 13 12 10 8 6 5 5 6 7 6 6 6 6 6 4 3 3 4 3 3 4 6
8 11 8 4 3 5 5 6 8 8 13 11 21 4 18 24 25 24 23 22 21 20 17 16 17 18 14 13 10 7 7 7 5 4 4 6 7 7 7 8 8 7 6 5 5 6 6 5 6
6 18 4 1 10 7 4 4 6 8 4 10 23 12 10 22 24 23 23 20 18 17 14 14 17 19 16 13 11 9 8 7 7 6 7 7 8 8 8 8 8 8 7 7 7 7 7 8 8
5 14 15 1 6 3 1 1 6 6 3 17 21 12 12 19 22 22 21 17 18 15 10 11 15 18 17 15 13 11 9 7 6 8 9 8 9 8 8 8 7 7 7 7 8 9 10 10 11
3 8 19 12 7 7 4 6 3 21 20 16 19 7 15 16 17 17 17 15 15 15 12 12 12 14 14 13 13 12 9 7 7 8 9 9 9 8 9 8 7 7 8 8 8 9 11 12 13
9 7 18 15 16 9 3 5 6 24 19 15 19 16 11 17 17 18 20 19 19 15 13 12 12 11 12 11 10 9 9 7 8 7 7 7 7 7 8 8 9 9 9 8 8 9 10 12 14
3 7 6 11 9 4 8 6 7 22 22 26 22 18 9 9 15 20 19 19 17 15 13 14 12 13 14 12 11 10 10 10 8 8 8 9 9 9 9 10 10 9 10 11 11 11 13 14 15
5 6 5 5 13 5 10 7 10 18 20 21 21 21 13 11 13 12 13 14 14 14 14 14 15 14 15 15 14 14 13 13 12 11 11 12 13 12 13 13 12 11 12 14 15 15 17 18 18
5 6 6 5 20 10 10 3 14 8 17 18 25 25 20 12 11 11 14 13 12 12 13 14 15 16 16 16 17 16 17 17 16 16 15 15 16 16 17 17 16 14 15 17 18 20 21 23 23
10 6 3 6 14 9 13 6 9 15 11 20 27 28 26 23 16 13 15 17 18 16 16 17 17 16 16 16 17 19 20 20 19 19 19 18 19 20 21 22 22 22 21 22 23 25 25 26 28
8 6 6 2 6 5 11 3 6 14 9 21 31 30 27 28 24 17 16 16 17 19 19 20 20 20 21 21 21 22 23 22 22 22 22 22 22 23 24 24 25 26 27 26 25 25 27 28 28
8 7 5 2 4 9 6 9 9 15 19 27 29 31 32 34 28 23 17 19 20 20 21 20 20 20 20 22 22 23 24 25 24 24 26 27 28 27 28 29 29 29 29 28 27 28 29 29 29
3 8 6 6 5 2 6 5 7 9 18 26 34 42 39 25 25 23 19 18 20 20 18 18 18 19 20 21 21 22 24 26 27 28 28 29 29 30 30 30 31 30 31 30 30 30 28 27 25
3 5 6 8 5 4 3 4 9 10 12 10 28 36 38 24 18 22 21 19 19 18 17 17 16 17 18 19 21 22 24 24 24 24 24 24 24 25 26 27 27 28 29 29 28 27 26 23 22
2 5 6 3 4 3 1 1 5 5 16 24 29 29 37 31 23 22 23 21 20 19 17 16 16 16 17 18 19 20 20 22 22 22 23 25 26 28 29 29 30 29 29 28 27 27 26 24 22
6 6 7 5 3 2 6 5 5 6 12 3 14 32 42 37 28 25 24 23 21 19 16 14 14 14 15 15 15 15 15 15 15 15 15 16 16 16 17 19 20 21 22 24 27 26 25 23 22
4 5 3 2 2 4 1 6 11 5 6 6 9 14 20 30 27 29 29 25 21 18 15 14 13 14 13 13 13 13 14 14 15 16 17 17 17 18 18 19 19 19 19 20 20 21 23 24 22
2 4 5 5 3 3 0 6 5 5 9 14 18 18 15 20 27 30 28 24 18 14 12 11 10 9 10 11 12 12 13 13 14 15 16 17 17 18 19 19 20 19 19 18 18 19 18 19 20
4 2 3 6 2 3 4 6 8 10 8 8 11 11 13 21 28 30 25 20 16 12 10 9 8 8 9 9 10 10 11 11 11 12 13 13 13 14 15 16 16 17 16 16 16 16 17 18 19
4 4 3 3 1 3 4 5 6 6 7 7 5 10 15 23 26 24 21 18 15 13 11 9 8 8 8 8 8 9 9 10 10 10 11 12 12 13 14 15 15 16 16 15 15 14 15 16 16
2 2 2 2 4 4 2 5 6 5 7 8 9 12 19 25 26 23 20 17 14 12 11 10 9 8 8 8 9 10 10 10 11 11 12 13 13 14 14 13 13 14 14 14 13 13 13 14 13
2 4 5 3 4 1 2 7 2 6 8 8 8 10 21 24 23 22 20 18 15 13 11 10 10 10 10 11 12 12 12 12 12 12 12 12 12 12 11 11 12 12 12 12 11 11 11 10 10
Wind_Direction
128 121 133 133 72 67 248 259 270 325 246 247 173 149 165 79 157 197 155 161 161 160 160 162 162 163 163 158 152 144 131 123 122 85 94 102 118 127 121 104 83 65 64 87 127 153 143 139 130
116 135 153 103 97 110 258 263 272 271 326 124 108 104 80 93 101 140 150 157 165 159 160 162 161 162 164 158 156 147 151 156 136 84 95 108 122 129 123 110 80 55 58 79 106 147 151 147 136
157 167 159 103 118 177 213 180 303 313 296 213 68 78 88 72 138 145 156 157 165 165 162 161 160 165 169 165 162 162 154 173 162 122 112 116 126 130 124 125 84 56 63 76 87 114 138 139 126
248 183 77 104 191 242 204 333 320 336 55 216 211 67 90 108 125 145 150 159 163 166 164 164 163 173 176 173 173 161 147 231 160 140 128 129 134 131 131 126 96 70 73 83 89 102 117 116 106
216 206 94 137 219 259 251 303 328 325 304 256 158 175 97 155 134 157 162 160 165 169 168 168 171 178 177 177 174 168 158 146 144 140 132 138 138 136 146 139 122 92 83 90 88 94 103 105 97
204 193 140 187 216 255 293 339 335 335 316 133 140 124 144 163 159 153 155 159 167 173 170 172 176 182 182 183 183 177 158 142 155 171 138 138 144 152 160 156 145 120 102 108 105 105 110 114 112
179 277 186 163 201 297 187 2 43 330 297 20 157 99 159 154 154 151 150 158 168 175 174 175 185 185 188 194 193 187 166 153 165 187 122 150 160 171 169 171 166 149 130 138 137 139 153 161 167
176 227 149 176 174 226 76 76 15 15 325 11 280 208 177 161 155 155 154 156 166 175 178 181 187 190 193 196 203 194 178 159 163 188 180 167 172 180 194 194 185 191 114 155 180 183 191 210 211
196 242 210 182 164 164 73 66 14 9 350 28 320 234 196 161 161 161 162 164 170 177 181 190 196 195 205 202 202 200 189 182 177 178 207 209 205 205 208 217 220 220 221 219 218 230 250 272 281
179 201 225 184 74 115 92 81 351 6 354 43 18 22 158 167 169 170 171 172 174 175 180 188 197 199 208 208 217 219 222 221 220 229 242 231 228 228 229 233 238 239 236 238 237 236 247 263 275
198 206 187 115 156 107 92 75 5 0 29 23 338 330 176 174 177 181 182 182 176 175 184 194 199 202 214 221 230 239 239 236 241 249 251 249 245 244 247 250 258 250 253 261 264 259 262 268 277
187 214 200 91 117 160 125 101 349 303 241 339 344 324 202 194 191 191 190 188 187 185 185 192 194 202 212 223 236 246 243 243 258 259 258 263 252 256 257 254 255 252 258 269 274 274 274 276 278
233 175 204 202 191 112 139 22 314 276 285 316 341 321 205 205 212 202 201 197 196 197 195 193 192 197 208 220 227 232 233 243 259 263 260 264 259 266 253 250 253 259 270 279 281 280 279 281 281
198 199 181 166 171 157 118 24 349 269 281 293 330 336 231 221 213 211 207 205 207 206 208 209 211 210 215 218 222 223 229 240 253 259 266 271 266 258 260 260 264 263 274 281 286 286 287 287 283
95 115 128 162 147 121 111 278 246 266 284 290 304 325 258 228 224 217 215 216 219 221 219 225 227 226 229 231 233 235 242 248 260 264 265 270 269 261 263 267 272 279 280 279 285 291 290 291 292
160 117 151 183 163 115 137 234 238 252 279 280 288 303 296 234 229 218 215 219 224 227 230 232 234 236 242 245 247 249 252 258 262 265 265 266 269 271 272 276 278 285 283 284 284 288 289 291 292
192 163 149 151 182 150 180 214 236 221 241 267 279 291 286 261 219 205 210 205 206 213 220 228 239 241 246 252 254 253 254 258 264 264 267 268 269 272 274 280 283 284 282 281 285 288 288 290 292
168 133 147 154 193 173 184 205 149 177 234 266 276 281 278 270 250 228 215 208 209 212 221 227 231 234 241 248 254 252 253 258 263 264 266 267 267 269 271 274 276 278 279 280 283 287 288 286 286
115 112 145 97 180 145 199 218 152 186 192 275 271 265 266 264 269 251 232 224 221 223 224 225 231 238 240 244 250 255 257 260 262 262 265 266 265 268 270 272 275 276 277 282 284 283 284 285 286
121 127 156 97 171 188 161 209 238 174 185 224 255 267 270 271 260 243 234 231 230 231 230 228 228 232 237 241 247 249 252 254 257 259 259 263 265 265 268 269 272 274 276 277 278 279 283 285 284
60 152 167 152 112 50 141 243 212 233 200 209 225 237 256 266 246 227 219 222 224 224 223 220 222 230 237 243 249 252 253 255 257 258 260 261 262 265 268 268 271 272 274 273 273 276 278 284 283
99 161 129 136 124 183 193 254 235 224 226 220 235 236 243 244 237 221 211 211 212 216 219 224 230 237 242 245 249 253 258 259 259 257 258 261 265 268 270 270 269 270 271 271 271 271 276 276 280
152 141 118 88 91 116 168 236 234 169 229 227 226 236 242 239 229 221 213 211 211 217 224 231 238 246 253 257 261 263 264 264 264 263 262 263 265 267 269 271 272 272 271 272 270 268 268 270 271
154 81 55 57 80 341 201 186 233 200 223 229 229 240 243 238 225 222 211 205 207 214 224 236 249 259 263 265 266 266 265 264 265 268 270 270 270 270 271 274 276 277 276 273 267 265 266 265 270
73 78 46 21 358 219 276 203 255 258 229 220 238 251 248 236 222 208 204 205 207 212 224 239 251 258 263 267 267 268 269 269 269 271 274 274 275 276 276 276 276 276 277 276 274 271 265 263 265
178 140 146 178 201 247 143 234 255 257 279 255 255 257 258 224 210 204 200 199 205 216 228 236 243 253 262 269 274 277 278 277 277 278 278 280 282 282 282 282 282 281 278 273 268 263 262 258 259
183 143 152 109 38 46 240 289 286 269 279 287 270 247 230 203 195 191 189 193 203 212 225 236 252 265 270 272 276 280 283 284 285 285 286 287 288 289 290 290 289 287 284 278 273 264 255 251 252
90 160 63 5 136 268 285 278 239 300 306 299 251 231 202 190 183 184 190 197 202 210 220 237 258 269 273 277 281 283 282 282 284 285 287 288 290 290 290 289 289 289 287 283 276 269 262 260 262
97 123 86 133 145 188 279 261 207 239 284 288 270 220 197 184 184 189 194 197 204 212 224 241 255 261 270 279 283 282 278 277 280 284 287 288 287 287 287 288 289 288 285 280 275 272 269 268 269
192 196 157 149 223 153 144 269 235 260 276 282 278 218 192 190 191 193 196 200 208 217 230 243 253 260 270 279 282 279 274 274 278 284 288 289 290 288 286 289 292 291 287 279 272 270 271 274 274